CW9020 Weather Reports


Display with metric or nautical units.
time (UTC)temp
F
wind
direction
speed
MPH
gust
MPH
rain 1hr
in
rain 24hr
in
rain mn
in
humidity
%
barometer
mb
20200715111835 57 9 0.0 0.0 0.00 0.00 0.00 92 1014.9
20200715110335 57 9 0.0 0.0 0.00 0.00 0.00 92 1015.2
20200715103343 57 9 0.0 0.0 0.00 0.00 0.00 92 1015.0
20200715101828 57 9 0.0 0.0 0.00 0.00 0.00 92 1014.7
20200715100325 57 9 0.0 0.0 0.00 0.00 0.00 92 1014.7
20200715093337 58 9 0.0 0.0 0.00 0.00 0.00 92 1014.8
20200715091840 58 9 0.0 0.0 0.00 0.00 0.00 92 1014.8
20200715084826 58 9 0.0 0.0 0.00 0.00 0.00 92 1015.2
20200715083334 58 9 0.0 0.0 0.00 0.00 0.00 92 1015.2
20200715081842 58 9 0.0 0.0 0.00 0.00 0.00 91 1014.2
20200715074824 59 9 0.0 0.0 0.00 0.00 0.00 91 1013.7
20200715071839 60 9 0.0 0.0 0.00 0.00 0.00 91 1013.9
20200715070322 60 9 0.0 0.0 0.00 0.00 0.00 90 1014.3
20200715064826 60 9 0.0 0.0 0.00 0.00 0.00 90 1014.6
20200715060337 61 9 0.0 0.0 0.00 0.00 0.00 88 1015.5
20200715054842 62 9 0.0 0.0 0.00 0.00 0.00 87 1016.8
20200715053330 63 9 0.0 0.0 0.00 0.00 0.00 89 1016.7
20200715050340 63 9 0.0 0.0 0.00 0.00 0.00 86 1016.7
20200715044823 64 9 0.0 0.0 0.00 0.00 0.03 84 1016.3
20200715043326 65 9 0.0 0.0 0.00 0.00 0.03 84 1016.1
20200715040331 65 9 0.0 0.0 0.00 0.00 0.03 82 1015.6
20200715033344 66 9 0.0 0.0 0.00 0.00 0.03 80 1016.1
20200715031826 66 9 0.0 0.0 0.00 0.00 0.03 80 1016.0
20200715030326 66 9 0.0 0.0 0.00 0.00 0.03 79 1016.1
20200715024832 66 9 0.0 0.0 0.00 0.00 0.03 78 1015.8
20200715021825 68 9 0.0 0.0 0.00 0.00 0.03 73 1014.9
20200715020341 69 360 0.0 0.0 0.00 0.00 0.03 70 1014.7
20200715011841 71 348 2.0 0.0 0.00 0.00 0.03 66 1014.2
20200715004828 73 348 0.0 0.0 0.00 0.00 0.03 66 1014.3
20200715003330 72 9 1.0 0.0 0.00 0.00 0.03 67 1014.2
20200715001837 70 13 0.0 0.0 0.00 0.00 0.03 69 1014.3
20200715000336 70 13 1.0 0.0 0.00 0.00 0.03 67 1014.2
20200714234823 71 25 1.0 0.0 0.00 0.00 0.03 68 1014.0
20200714233326 71 17 0.0 0.0 0.00 0.00 0.03 68 1013.9
20200714230334 71 5 2.0 0.0 0.00 0.00 0.03 68 1013.7
20200714224836 72 329 0.0 0.0 0.00 0.00 0.03 71 1013.5
20200714223342 73 23 1.0 0.0 0.00 0.00 0.03 69 1013.3
20200714221827 73 11 1.0 0.0 0.00 0.00 0.03 69 1013.3
20200714220322 73 24 1.0 0.0 0.00 0.00 0.03 69 1013.2
20200714214834 74 26 2.0 0.0 0.00 0.00 0.03 70 1013.0
20200714213341 74 290 3.0 0.0 0.00 0.00 0.03 69 1013.0
20200714211825 74 360 2.0 0.0 0.00 0.00 0.03 70 1012.8
20200714210324 74 348 2.0 0.0 0.00 0.00 0.03 70 1012.8
20200714204825 73 13 1.0 0.0 0.00 0.00 0.03 69 1012.7
20200714203332 73 30 2.0 0.0 0.00 0.00 0.03 68 1012.7
20200714200337 71 5 3.0 0.0 0.00 0.00 0.03 73 1012.5
20200714194825 71 302 2.0 0.0 0.00 0.00 0.03 75 1012.5
20200714193332 73 355 3.0 0.0 0.00 0.00 0.03 72 1012.1
20200714191837 76 33 4.0 0.0 0.00 0.00 0.03 76 1012.1
20200714190334 78 333 4.0 0.0 0.00 0.00 0.03 75 1011.9
20200714184840 80 355 2.0 0.0 0.00 0.00 0.03 72 1011.8
20200714181832 80 336 2.0 0.0 0.00 0.00 0.03 74 1011.4
20200714174838 80 35 1.0 0.0 0.00 0.00 0.03 76 1011.3
20200714173323 78 345 2.0 0.0 0.00 0.00 0.03 79 1011.2
20200714164838 79 323 2.0 0.0 0.00 0.00 0.03 78 1010.9
20200714163326 79 341 2.0 0.0 0.00 0.00 0.03 80 1010.7
20200714160326 80 72 0.0 0.0 0.00 0.00 0.03 75 1010.1
20200714154831 79 88 0.0 0.0 0.00 0.00 0.03 77 1010.1
20200714153335 79 88 0.0 0.0 0.00 0.00 0.03 77 1010.2
20200714151841 78 88 0.0 0.0 0.00 0.00 0.02 81 1010.5
20200714150336 77 88 0.0 0.0 0.00 0.00 0.02 86 1010.4
20200714144840 75 88 0.0 0.0 0.00 0.00 0.02 88 1010.5
20200714143331 74 88 0.0 0.0 0.00 0.00 0.02 91 1010.0
20200714140330 74 90 0.0 0.0 0.00 0.00 0.02 91 1009.4
20200714134837 73 90 0.0 0.0 0.00 0.00 0.02 91 1009.4
20200714133321 73 90 0.0 0.0 0.00 0.00 0.02 92 1009.9
20200714131833 72 90 0.0 0.0 0.00 0.00 0.02 92 1009.8
20200714130332 72 90 0.0 0.0 0.00 0.00 0.02 91 1009.6
20200714120333 72 329 0.0 0.0 0.00 0.00 0.01 90 1010.2
20200714114840 72 340 2.0 0.0 0.00 0.00 0.00 89 1010.0